[[{"header":{"parameterUnit":"m.s-1","parameterCategory":2,"la1":30.2991,"la2":30.254,"lo1":-89.0895,"lo2":-89.0444,"dy":0.0017,"dx":0.0017,"nx":28,"ny":28,"refTime":"2023-10-12T09:00:00:Z","depth":"0","parameterNumber":2,"parameterNumberName":"U-component_of_CURRENTS"},"data":[0,0,0,0,0,0,0,0,0,0,0,0,0,0,0,0,0,0,0,0,0,0,0,0,0,0,0,0,0,0,0,0,0,0,0,0,0,0,0,0,0,0,0,0,0,0,0,0,0,0,0,0,0,0,0,0,0,0,0.246,0.2461,0,0.2525,0.2525,0.2526,0.2517,0.2516,0.2515,0.2515,0.2509,0.251,0.251,0,0,0,0,0,0,0,0,0,0,0,0,0,0.2322,0.2324,0.246,0.2461,0.2462,0.2525,0.2525,0.2526,0.2517,0.2516,0.2515,0.2514,0.2509,0.251,0.251,0,0,0,0,0,0,0,0,0,0,0,0,0,0.238,0.2325,0.246,0.2468,0.247,0.2525,0.2525,0.2526,0.2517,0.2516,0.2515,0.2514,0.2509,0.251,0.2511,0.2537,0,0,0.2513,0.2513,0,0,0,0,0,0,0,0,0.2377,0.2385,0.2466,0.2468,0.247,0.2515,0.2475,0.2528,0.2518,0.2495,0.2515,0.2514,0.2508,0.2509,0.2519,0.2537,0.2536,0.2513,0.2513,0.2514,0.2514,0,0,0,0,0,0,0,0.2373,0.2382,0.2482,0.2467,0.247,0.2467,0.2474,0.2485,0.2503,0.2497,0.2498,0.2511,0.2508,0.2518,0.2519,0.2536,0.2513,0.2514,0.2514,0.2514,0.2635,0.2638,0,0,0,0,0,0,0.2375,0.2379,0.248,0.2484,0.2424,0.2471,0.2478,0.2499,0.2504,0.2506,0.2512,0.2511,0.2517,0.2518,0.2518,0.255,0.2514,0.2515,0.2515,0.2632,0.2636,0.2639,0,0,0,0,0,0,0.2372,0.2384,0.2477,0.2435,0.2447,0.2475,0.2498,0.2501,0.252,0.2517,0.2516,0.253,0.2517,0.2517,0.2561,0.2549,0.2515,0.2516,0.2629,0.2633,0.2637,0.2612,0,0,0,0,0,0,0.2368,0.2382,0.2398,0.2436,0.245,0.2515,0.2499,0.2503,0.2532,0.253,0.2532,0.253,0.2516,0.256,0.2562,0.255,0.2516,0.2626,0.2631,0.2636,0.261,0.2615,0.262,0,0,0,0,0,0.2362,0.2382,0.2398,0.241,0.2471,0.2516,0.2523,0.2535,0.2534,0.2547,0.2568,0.253,0.2593,0.2564,0.2565,0.2552,0.2623,0.263,0.2636,0.2608,0.2614,0.262,0,0,0,0,0,0,0.2319,0.2385,0.2403,0.2439,0.248,0.2516,0.2528,0.2548,0.2576,0.257,0.2569,0.257,0.2603,0.2606,0.2574,0.2613,0.2601,0.2608,0.2579,0.2586,0.2591,0.2562,0.2517,0,0,0,0,0,0.2324,0.2359,0.2416,0.2445,0.2465,0.2503,0.2524,0.2537,0.2569,0.2579,0.2586,0.2605,0.2631,0.2631,0.2654,0.2674,0.2695,0.2674,0.2679,0.2682,0.2668,0.2705,0.271,0.2659,0.2659,0.2659,0,0,0.2314,0.2356,0.2374,0.244,0.2467,0.2494,0.2511,0.2544,0.2561,0.2575,0.2596,0.2625,0.2649,0.2672,0.2685,0.2666,0.272,0.269,0.2692,0.2675,0.2711,0.2716,0.2719,0.2663,0.2662,0.2662,0,0,0.2305,0.2351,0.2374,0.2411,0.2464,0.249,0.2506,0.2553,0.2567,0.261,0.2626,0.2657,0.2691,0.2697,0.2708,0.2763,0.2756,0.2776,0.2753,0.279,0.2792,0.2795,0.2863,0.2872,0.2763,0.2763,0.2763,0,0.2287,0.2329,0.2385,0.2413,0.2439,0.249,0.251,0.2538,0.2592,0.2612,0.2613,0.2687,0.2695,0.2726,0.2739,0.2763,0.2802,0.2714,0.279,0.2792,0.2795,0.2864,0.2874,0.2762,0.2763,0.2763,0.2763,0,0.2293,0.2327,0.2341,0.2396,0.2432,0.2458,0.251,0.2542,0.257,0.26,0.2651,0.2681,0.2719,0.273,0.2741,0.2771,0.2803,0.2796,0.2756,0.2797,0.287,0.2881,0.2762,0.2762,0.2762,0.2762,0,0,0.2242,0.2329,0.233,0.2353,0.2425,0.245,0.249,0.2544,0.2571,0.2612,0.265,0.2684,0.2706,0.2723,0.2745,0.276,0.282,0.2778,0.2781,0.2814,0.2933,0.2937,0.2949,0.2823,0.2824,0.2825,0.2987,0,0.2225,0.2261,0.2317,0.2347,0.2368,0.2435,0.247,0.2525,0.2574,0.2625,0.2661,0.271,0.2703,0.2728,0.2742,0.2816,0.2841,0.2778,0.2916,0.292,0.289,0.2958,0.291,0.3048,0.2998,0.2999,0.3001,0,0.2206,0.2235,0.226,0.2328,0.2344,0.2374,0.2444,0.2485,0.2572,0.261,0.266,0.2711,0.2765,0.2747,0.2854,0.282,0.2867,0.2908,0.2915,0.2923,0.2941,0.2996,0.3069,0.302,0.3017,0.3015,0.3014,0,0.2136,0.2194,0.2211,0.2233,0.2315,0.2344,0.2392,0.2478,0.252,0.2613,0.2667,0.2731,0.2791,0.2845,0.2937,0.2906,0.3061,0.3035,0.3083,0.3087,0.3073,0.3071,0.3077,0.309,0.309,0.3089,0.3089,0,0.2103,0.2115,0.2179,0.2191,0.2214,0.2293,0.2336,0.2401,0.2495,0.2561,0.2654,0.2728,0.2815,0.2921,0.297,0.308,0.3097,0.3094,0.3124,0.3071,0.3068,0.3044,0.3004,0.3095,0.3094,0.3093,0.3092,0,0.2049,0.2084,0.2105,0.2171,0.2187,0.221,0.2302,0.2349,0.2446,0.2545,0.2585,0.2747,0.2903,0.3003,0.3129,0.3141,0.3163,0.3256,0.3206,0.3224,0.3189,0.315,0.3039,0.2952,0.3339,0.334,0.3341,0,0.2042,0.2044,0.2076,0.2091,0.2128,0.2168,0.2211,0.2304,0.2372,0.2562,0.2624,0.2808,0.2939,0.315,0.3228,0.3347,0.322,0.3337,0.324,0.319,0.3169,0.2993,0.2913,0.3244,0.3244,0.3244,0.3244,0,0.2038,0.2036,0.2058,0.2071,0.2106,0.213,0.2208,0.2237,0.2379,0.2481,0.2652,0.2773,0.3014,0.3135,0.3292,0.3341,0.3191,0.3338,0.3293,0.3097,0.2898,0.2829,0.316,0.3244,0.3244,0.3244,0.3244,0.3244,0.2047,0.2049,0.2069,0.2077,0.2101,0.212,0.2135,0.2227,0.2315,0.2477,0.2615,0.2778,0.3006,0.3236,0.3258,0.3292,0.3204,0.3243,0.3211,0.3045,0.2899,0.3239,0.3337,0.3337,0.3338,0.3338,0.3338,0,0.207,0.2069,0.2084,0.2091,0.2098,0.211,0.216,0.2176,0.2259,0.2427,0.2561,0.2787,0.2953,0.3097,0.3256,0.3199,0.3005,0.3128,0.2877,0.2812,0.3157,0.3093,0.3131,0.3131,0.3131,0.3131,0.3131,0.3132,0.209,0.2097,0.2086,0.2088,0.2089,0.2091,0.21,0.2124,0.2213,0.2343,0.2468,0.2596,0.2874,0.3128,0.3166,0.3097,0.2857,0.2759,0.2693,0.2978,0.2985,0.2992,0.2921,0.2923,0.2923,0.2249,0.2245,0.2241]},{"header":{"parameterUnit":"m.s-1","parameterCategory":2,"la1":30.2991,"la2":30.254,"lo1":-89.0895,"lo2":-89.0444,"dy":0.0017,"dx":0.0017,"nx":28,"ny":28,"refTime":"2023-10-12T09:00:00:Z","depth":"0","parameterNumber":3,"parameterNumberName":"V-component_of_CURRENTS"},"data":[0,0,0,0,0,0,0,0,0,0,0,0,0,0,0,0,0,0,0,0,0,0,0,0,0,0,0,0,0,0,0,0,0,0,0,0,0,0,0,0,0,0,0,0,0,0,0,0,0,0,0,0,0,0,0,0,0,0,-0.012,-0.012,0,-0.0103,-0.0102,-0.0102,-0.0122,-0.0123,-0.0124,-0.0125,-0.008,-0.0078,-0.0076,0,0,0,0,0,0,0,0,0,0,0,0,0,-0.0154,-0.0154,-0.012,-0.012,-0.012,-0.0103,-0.0102,-0.0102,-0.0122,-0.0123,-0.0125,-0.0126,-0.0081,-0.0078,-0.0076,0,0,0,0,0,0,0,0,0,0,0,0,0,-0.0136,-0.0153,-0.012,-0.013,-0.0131,-0.0103,-0.0102,-0.0102,-0.0122,-0.0123,-0.0125,-0.0126,-0.0082,-0.0079,-0.0076,-0.0025,0,0,-0.0066,-0.0064,0,0,0,0,0,0,0,0,-0.0137,-0.0134,-0.0129,-0.0129,-0.0131,-0.0119,-0.0098,-0.0075,-0.0121,-0.0122,-0.0125,-0.0127,-0.0091,-0.0087,-0.0077,-0.0022,-0.0021,-0.0065,-0.0063,-0.0062,-0.0061,0,0,0,0,0,0,0,-0.0138,-0.0135,-0.011,-0.0129,-0.013,-0.0131,-0.013,-0.0094,-0.0095,-0.0122,-0.0124,-0.0127,-0.0092,-0.008,-0.0076,-0.002,-0.0065,-0.0063,-0.0061,-0.0059,0.0051,0.0052,0,0,0,0,0,0,-0.0145,-0.0136,-0.0111,-0.011,-0.0141,-0.0129,-0.0128,-0.0119,-0.0097,-0.0096,-0.0126,-0.0128,-0.0085,-0.008,-0.0075,-0.0016,-0.0062,-0.0059,-0.0057,0.005,0.0051,0.0053,0,0,0,0,0,0,-0.0146,-0.0142,-0.0111,-0.0126,-0.0122,-0.0127,-0.0117,-0.0118,-0.011,-0.01,-0.0098,-0.0118,-0.0086,-0.0079,-0.0039,-0.0015,-0.0058,-0.0055,0.0049,0.0051,0.0052,0.0102,0,0,0,0,0,0,-0.0146,-0.0142,-0.0127,-0.0126,-0.0122,-0.0075,-0.0116,-0.0116,-0.011,-0.0113,-0.0092,-0.009,-0.0087,-0.0044,-0.0036,-0.0011,-0.0052,0.0048,0.005,0.0052,0.0099,0.0105,0.011,0,0,0,0,0,-0.0147,-0.0111,-0.0126,-0.0123,-0.0104,-0.0074,-0.007,-0.0078,-0.0108,-0.0082,-0.0083,-0.0091,-0.0027,-0.0039,-0.003,-0.0005,0.0047,0.0049,0.0051,0.0097,0.0104,0.011,0,0,0,0,0,0,-0.01,-0.0111,-0.0126,-0.0091,-0.008,-0.0078,-0.0056,-0.0073,-0.0052,-0.0061,-0.0065,-0.006,-0.002,-0.0016,-0.003,0.003,0.0004,0.0008,0.0036,0.0043,0.0048,0.0047,-0.0049,0,0,0,0,0,-0.0089,-0.0073,-0.0079,-0.0046,-0.0044,-0.0053,-0.0043,-0.0051,-0.0041,-0.0036,-0.0029,-0.0021,-0.0,0.0016,0.0038,0.0084,0.0064,0.0101,0.0107,0.0112,0.0116,0.0098,0.0102,0.006,0.006,0.006,0,0,-0.0059,-0.0064,-0.0052,-0.0037,-0.0034,-0.0008,-0.0049,-0.0026,-0.0004,-0.003,0.0008,0.0006,0.0016,0.0059,0.0077,0.0065,0.0114,0.0114,0.0119,0.012,0.0101,0.0104,0.0108,0.0061,0.0061,0.0061,0,0,0.0008,-0.0,0.0032,0.004,0.0043,0.0037,0.0041,0.0043,0.0045,0.008,0.0056,0.0065,0.0107,0.0112,0.012,0.0172,0.0143,0.0176,0.021,0.0192,0.0195,0.0198,0.018,0.018,0.018,0.018,0.018,0,0.0042,0.0075,0.0053,0.0083,0.0091,0.0056,0.0093,0.0101,0.0116,0.0122,0.0101,0.0128,0.0132,0.017,0.0179,0.0186,0.0167,0.0185,0.0199,0.0201,0.0202,0.0183,0.0183,0.0183,0.0182,0.0182,0.0182,0,0.0127,0.015,0.0173,0.0187,0.02,0.023,0.0219,0.0234,0.0213,0.0209,0.0232,0.0225,0.0235,0.0236,0.0225,0.0244,0.0224,0.0206,0.018,0.0209,0.0188,0.0187,0.0187,0.0186,0.0185,0.0184,0,0,0.0204,0.0226,0.0232,0.0246,0.025,0.027,0.0302,0.0321,0.0339,0.0331,0.0356,0.036,0.0324,0.0329,0.0308,0.029,0.028,0.0254,0.0251,0.0233,0.0239,0.0215,0.0211,0.026,0.026,0.026,0.022,0,0.0274,0.0337,0.0329,0.039,0.0417,0.0391,0.0428,0.0435,0.0427,0.0447,0.0411,0.0433,0.037,0.0375,0.0343,0.0307,0.0279,0.0293,0.0216,0.0214,0.0186,0.021,0.0194,0.0156,0.0219,0.0219,0.0219,0,0.0355,0.0381,0.0445,0.0474,0.0484,0.0514,0.0538,0.057,0.0577,0.0571,0.0554,0.0525,0.0507,0.0446,0.037,0.038,0.031,0.0266,0.0263,0.0222,0.0188,0.0137,0.0151,-0.0022,0.0216,0.0216,0.0217,0,0.0407,0.0461,0.0506,0.0517,0.0549,0.0573,0.0594,0.0608,0.0642,0.0651,0.0674,0.062,0.0619,0.052,0.041,0.0393,0.032,0.0287,0.0196,0.0193,0.0156,0.015,-0.0009,0.0222,0.0222,0.0222,0.0222,0,0.0477,0.0517,0.0533,0.0561,0.0623,0.0627,0.0688,0.0704,0.0737,0.0801,0.074,0.0776,0.0636,0.0575,0.0448,0.0323,0.0344,0.0206,0.0184,0.0174,0.017,-0.0002,-0.0076,0.0221,0.0221,0.0221,0.0221,0,0.0535,0.0543,0.06,0.0636,0.065,0.0697,0.0754,0.0807,0.083,0.0913,0.0927,0.0898,0.0823,0.067,0.0526,0.0393,0.0172,0.0211,0.0209,0.0186,-0.0065,-0.0133,-0.0287,-0.0363,0.0109,0.0108,0.0107,0,0.0578,0.061,0.0651,0.0688,0.0707,0.0766,0.0819,0.0852,0.0918,0.0998,0.1059,0.1013,0.1011,0.078,0.0523,0.0298,0.0147,0.0134,0.0092,-0.008,-0.0173,-0.0225,-0.0282,0.0063,0.0062,0.0061,0.006,0,0.0661,0.0662,0.0701,0.0771,0.0825,0.089,0.097,0.1034,0.1103,0.1184,0.1285,0.1295,0.1071,0.0837,0.051,0.0343,0.0012,0.011,-0.0069,-0.0221,-0.0287,-0.0369,0.0087,0.0053,0.0054,0.0054,0.0055,0.0055,0.072,0.0758,0.0799,0.0865,0.0933,0.1026,0.11,0.1201,0.1326,0.1483,0.1462,0.1524,0.1146,0.0699,0.0422,-0.0081,-0.0052,-0.0223,-0.029,-0.0326,-0.0411,0.003,-0.0029,-0.0029,-0.0029,-0.0028,-0.0028,0,0.0793,0.0827,0.0897,0.0979,0.1066,0.108,0.1215,0.1311,0.148,0.1631,0.1724,0.1577,0.1109,0.0629,-0.0048,-0.0409,-0.0542,-0.0601,-0.0697,-0.0734,-0.0349,-0.0365,-0.0498,-0.0498,-0.0498,-0.0497,-0.0497,-0.0497,0.0835,0.0903,0.0928,0.1077,0.1142,0.127,0.1351,0.1505,0.164,0.1848,0.1906,0.1902,0.153,0.0279,-0.0582,-0.0786,-0.1021,-0.1082,-0.1189,-0.0954,-0.0925,-0.0897,-0.0932,-0.1182,-0.1183,-0.1554,-0.1558,-0.1561]}],[{"header":{"parameterUnit":"m.s-1","parameterCategory":2,"la1":30.2991,"la2":30.254,"lo1":-89.0895,"lo2":-89.0444,"dy":0.0017,"dx":0.0017,"nx":28,"ny":28,"refTime":"2023-10-12T09:00:00:Z","depth":"2","parameterNumber":2,"parameterNumberName":"U-component_of_CURRENTS"},"data":[0,0,0,0,0,0,0,0,0,0,0,0,0,0,0,0,0,0,0,0,0,0,0,0,0,0,0,0,0,0,0,0,0,0,0,0,0,0,0,0,0,0,0,0,0,0,0,0,0,0,0,0,0,0,0,0,0,0,0.1232,0.1232,0,0.1274,0.1275,0.1275,0.1295,0.1295,0.1295,0.1295,0.1476,0.148,0.1485,0,0,0,0,0,0,0,0,0,0,0,0,0,0.1131,0.1133,0.1231,0.1232,0.1232,0.1274,0.1275,0.1275,0.1295,0.1295,0.1295,0.1295,0.1474,0.148,0.1486,0,0,0,0,0,0,0,0,0,0,0,0,0,0.1175,0.1133,0.1231,0.1247,0.1249,0.1274,0.1275,0.1275,0.1295,0.1295,0.1295,0.1295,0.1472,0.1479,0.1486,0.1534,0,0,0.1509,0.1512,0,0,0,0,0,0,0,0,0.1172,0.1179,0.1244,0.1246,0.1248,0.1279,0.1305,0.1369,0.1295,0.1278,0.1295,0.1295,0.1422,0.1434,0.1441,0.1543,0.155,0.1509,0.1514,0.1517,0.1519,0,0,0,0,0,0,0,0.1169,0.1177,0.1249,0.1245,0.1247,0.1239,0.1246,0.1317,0.1354,0.128,0.1281,0.1285,0.1424,0.1434,0.1446,0.1553,0.1509,0.1516,0.152,0.1523,0.1713,0.1714,0,0,0,0,0,0,0.1165,0.1174,0.1248,0.125,0.1208,0.1241,0.1248,0.127,0.135,0.1361,0.1285,0.1286,0.1421,0.1437,0.1452,0.1559,0.1517,0.1524,0.1528,0.1713,0.1714,0.1714,0,0,0,0,0,0,0.1163,0.1172,0.1246,0.1211,0.122,0.1243,0.1266,0.127,0.129,0.1352,0.1366,0.1301,0.1422,0.1442,0.15,0.1564,0.1527,0.1534,0.1712,0.1713,0.1714,0.1744,0,0,0,0,0,0,0.116,0.1171,0.1187,0.1212,0.1222,0.1277,0.1267,0.1271,0.1291,0.1293,0.1371,0.1386,0.1423,0.1488,0.1507,0.1574,0.154,0.1711,0.1712,0.1714,0.1742,0.1746,0.1749,0,0,0,0,0,0.1157,0.1179,0.1188,0.1196,0.1243,0.1278,0.1284,0.1298,0.1292,0.1313,0.1338,0.1385,0.151,0.1494,0.1516,0.1587,0.1711,0.1712,0.1714,0.174,0.1745,0.1749,0,0,0,0,0,0,0.1139,0.1184,0.1194,0.1228,0.1258,0.1282,0.13,0.1305,0.1339,0.1345,0.1389,0.1407,0.1477,0.1518,0.1498,0.1639,0.1622,0.1628,0.1635,0.164,0.1643,0.1672,0.1546,0,0,0,0,0,0.1143,0.1175,0.1211,0.1238,0.1257,0.1279,0.1294,0.1309,0.1338,0.1353,0.1404,0.1455,0.15,0.1554,0.1596,0.1687,0.1712,0.1744,0.1748,0.1751,0.1786,0.1826,0.1837,0.1719,0.1719,0.1719,0,0,0.114,0.117,0.1186,0.1237,0.1261,0.1303,0.1289,0.1325,0.1364,0.1372,0.1445,0.1465,0.1515,0.1594,0.1635,0.1645,0.1796,0.1753,0.1755,0.179,0.1829,0.1841,0.1851,0.172,0.172,0.172,0,0,0.116,0.1184,0.1224,0.1257,0.1303,0.1321,0.1334,0.1377,0.1404,0.1463,0.1466,0.152,0.1608,0.166,0.1693,0.1748,0.179,0.1765,0.1845,0.1883,0.1894,0.1903,0.1944,0.1957,0.1794,0.1794,0.1794,0,0.1155,0.1218,0.1238,0.1289,0.1318,0.1333,0.1382,0.1414,0.1469,0.1513,0.1495,0.1609,0.1648,0.175,0.1761,0.1766,0.1782,0.1826,0.1889,0.1899,0.1909,0.1948,0.1963,0.1795,0.1795,0.1795,0.1795,0,0.1214,0.1264,0.129,0.1362,0.1391,0.1437,0.148,0.1521,0.1546,0.1596,0.1688,0.1716,0.1799,0.1812,0.181,0.191,0.1895,0.1865,0.1882,0.1923,0.1961,0.1976,0.1798,0.1797,0.1797,0.1796,0,0,0.1217,0.1314,0.1328,0.1365,0.1437,0.1462,0.1533,0.1617,0.1667,0.1739,0.1818,0.1898,0.1926,0.1963,0.197,0.2013,0.208,0.1979,0.198,0.2026,0.2166,0.2121,0.2132,0.205,0.2053,0.2055,0.2164,0,0.1266,0.1358,0.14,0.1478,0.1526,0.1562,0.1618,0.1691,0.175,0.1829,0.1904,0.1977,0.1982,0.2008,0.2061,0.2062,0.2121,0.2055,0.2116,0.2119,0.2079,0.2149,0.2008,0.209,0.2178,0.218,0.2182,0,0.1341,0.1378,0.1467,0.1535,0.1558,0.1606,0.1687,0.1744,0.1863,0.1906,0.2018,0.2067,0.2182,0.213,0.2244,0.2196,0.2206,0.2201,0.2204,0.2172,0.2101,0.2064,0.2112,0.2206,0.2204,0.2202,0.2201,0,0.1346,0.144,0.1503,0.1531,0.1602,0.1646,0.1688,0.1791,0.1856,0.1971,0.2038,0.2162,0.2233,0.2271,0.2316,0.2278,0.2394,0.2338,0.2321,0.2317,0.222,0.2203,0.2419,0.2419,0.2419,0.2418,0.2418,0,0.1404,0.1451,0.151,0.1539,0.1595,0.165,0.173,0.1784,0.1893,0.1985,0.2093,0.2176,0.2267,0.2356,0.2355,0.2406,0.2449,0.237,0.2356,0.2223,0.2206,0.232,0.2307,0.2422,0.2422,0.2421,0.242,0,0.1417,0.1472,0.1524,0.1583,0.1609,0.1646,0.1745,0.1798,0.1907,0.2021,0.2071,0.2234,0.2338,0.2421,0.2481,0.2474,0.2493,0.2492,0.2339,0.2304,0.2381,0.2368,0.2499,0.2499,0.2498,0.2498,0.2498,0,0.1437,0.1468,0.1528,0.1552,0.1587,0.1647,0.1687,0.1789,0.1855,0.2044,0.2099,0.2269,0.235,0.2463,0.2474,0.2507,0.2516,0.2383,0.2293,0.2424,0.2396,0.2384,0.2372,0.2175,0.2172,0.217,0.2168,0,0.1418,0.1444,0.1465,0.1518,0.1565,0.1611,0.1692,0.1736,0.1858,0.1967,0.2098,0.2182,0.2335,0.2324,0.2391,0.2371,0.2364,0.2336,0.2537,0.2166,0.2124,0.2094,0.2092,0.2147,0.2149,0.2151,0.2152,0.2152,0.137,0.1377,0.1407,0.1461,0.1515,0.1555,0.1573,0.1657,0.1736,0.1873,0.1998,0.2089,0.2174,0.2205,0.2157,0.2145,0.2281,0.2194,0.2199,0.2208,0.214,0.2099,0.2106,0.2107,0.2109,0.211,0.2112,0,0.1264,0.1301,0.1347,0.1394,0.142,0.1487,0.1555,0.155,0.1599,0.1756,0.1866,0.1801,0.1849,0.1922,0.1887,0.1897,0.1847,0.1819,0.175,0.1775,0.1797,0.1704,0.1556,0.1553,0.1551,0.1549,0,0,0.1194,0.1194,0.1236,0.1267,0.1322,0.1315,0.1332,0.1357,0.1447,0.1491,0.1578,0.1792,0.1897,0.1704,0.1696,0.1621,0.1667,0.1561,0.2022,0.1969,0.1986,0.2049,0.194,0,0,0,0,0]},{"header":{"parameterUnit":"m.s-1","parameterCategory":2,"la1":30.2991,"la2":30.254,"lo1":-89.0895,"lo2":-89.0444,"dy":0.0017,"dx":0.0017,"nx":28,"ny":28,"refTime":"2023-10-12T09:00:00:Z","depth":"2","parameterNumber":3,"parameterNumberName":"V-component_of_CURRENTS"},"data":[0,0,0,0,0,0,0,0,0,0,0,0,0,0,0,0,0,0,0,0,0,0,0,0,0,0,0,0,0,0,0,0,0,0,0,0,0,0,0,0,0,0,0,0,0,0,0,0,0,0,0,0,0,0,0,0,0,0,-0.0065,-0.0066,0,-0.0126,-0.0126,-0.0127,-0.0178,-0.0179,-0.0179,-0.0179,-0.0228,-0.0228,-0.0229,0,0,0,0,0,0,0,0,0,0,0,0,0,-0.001,-0.0011,-0.0065,-0.0066,-0.0067,-0.0126,-0.0126,-0.0127,-0.0178,-0.0179,-0.0179,-0.018,-0.0227,-0.0228,-0.0229,0,0,0,0,0,0,0,0,0,0,0,0,0,-0.005,-0.0011,-0.0065,-0.0098,-0.0101,-0.0125,-0.0127,-0.0128,-0.0178,-0.0179,-0.0179,-0.018,-0.0227,-0.0228,-0.023,-0.0225,0,0,-0.0234,-0.0234,0,0,0,0,0,0,0,0,-0.0048,-0.0052,-0.0092,-0.0096,-0.01,-0.0144,-0.0125,-0.0159,-0.0178,-0.015,-0.0179,-0.018,-0.0197,-0.0201,-0.0213,-0.0227,-0.0229,-0.0234,-0.0235,-0.0235,-0.0236,0,0,0,0,0,0,0,-0.0045,-0.005,-0.0091,-0.0093,-0.0097,-0.0115,-0.0121,-0.0132,-0.017,-0.0153,-0.0156,-0.0161,-0.0199,-0.0212,-0.0214,-0.023,-0.0234,-0.0235,-0.0236,-0.0236,-0.0254,-0.0254,0,0,0,0,0,0,-0.0033,-0.0047,-0.0089,-0.0092,-0.0073,-0.0115,-0.0122,-0.013,-0.0171,-0.0177,-0.016,-0.0163,-0.0209,-0.0213,-0.0216,-0.0203,-0.0235,-0.0236,-0.0237,-0.0254,-0.0254,-0.0254,0,0,0,0,0,0,-0.0032,-0.0036,-0.0086,-0.007,-0.0077,-0.0115,-0.0124,-0.0131,-0.0145,-0.0176,-0.0183,-0.0166,-0.021,-0.0214,-0.0231,-0.0206,-0.0237,-0.0238,-0.0255,-0.0254,-0.0254,-0.0183,0,0,0,0,0,0,-0.003,-0.0035,-0.004,-0.0069,-0.0078,-0.0095,-0.0123,-0.0132,-0.0145,-0.015,-0.0183,-0.0188,-0.0211,-0.0229,-0.0233,-0.0208,-0.0239,-0.0255,-0.0255,-0.0254,-0.0185,-0.018,-0.0175,0,0,0,0,0,-0.0028,-0.0025,-0.004,-0.0045,-0.0082,-0.0094,-0.01,-0.0131,-0.0145,-0.0146,-0.0175,-0.0187,-0.0228,-0.023,-0.0234,-0.0209,-0.0256,-0.0255,-0.0254,-0.0188,-0.0181,-0.0175,0,0,0,0,0,0,-0.0006,-0.0031,-0.0047,-0.0055,-0.0071,-0.0102,-0.0106,-0.0125,-0.0149,-0.0153,-0.0187,-0.0194,-0.0199,-0.0218,-0.022,-0.0215,-0.0242,-0.0242,-0.019,-0.0184,-0.0178,-0.0151,-0.024,0,0,0,0,0,-0.0002,-0.0007,-0.0033,-0.0038,-0.0044,-0.0074,-0.0084,-0.0101,-0.0125,-0.0137,-0.0159,-0.0182,-0.0199,-0.0203,-0.0223,-0.0217,-0.0243,-0.0204,-0.0199,-0.0194,-0.0176,-0.022,-0.0216,-0.0251,-0.0251,-0.0251,0,0,0.0005,-0.0009,-0.0013,-0.0034,-0.005,-0.0047,-0.0082,-0.0089,-0.0084,-0.0136,-0.0137,-0.0167,-0.0196,-0.0196,-0.0198,-0.0206,-0.0197,-0.0194,-0.0189,-0.0173,-0.0218,-0.0215,-0.0212,-0.0251,-0.0251,-0.0251,0,0,0.0029,0.0005,0.0015,0.0005,-0.0011,-0.0027,-0.0025,-0.005,-0.0059,-0.0064,-0.0101,-0.0115,-0.0138,-0.0151,-0.0161,-0.0138,-0.0174,-0.0146,-0.0088,-0.013,-0.0127,-0.0125,-0.0143,-0.0144,-0.0136,-0.0136,-0.0136,0,0.004,0.0045,0.0016,0.0026,0.0025,-0.0012,0.0004,-0.0007,-0.0033,-0.0029,-0.0053,-0.0085,-0.0111,-0.0105,-0.0099,-0.0121,-0.0152,-0.0107,-0.0122,-0.0121,-0.012,-0.0139,-0.014,-0.0133,-0.0133,-0.0133,-0.0134,0,0.0075,0.0077,0.0084,0.0084,0.0079,0.0087,0.007,0.0067,0.0052,0.0045,0.0043,-0.0,-0.0015,-0.0026,-0.0053,-0.0051,-0.0077,-0.0116,-0.0134,-0.0112,-0.0134,-0.0136,-0.0128,-0.0129,-0.013,-0.0131,0,0,0.0105,0.011,0.0112,0.0125,0.0112,0.0116,0.0127,0.0134,0.0152,0.0128,0.0146,0.012,0.0097,0.0084,0.0044,0.0015,-0.0003,-0.0039,-0.0043,-0.0049,-0.0086,-0.0131,-0.0138,-0.0057,-0.0057,-0.0058,-0.01,0,0.0143,0.0177,0.0168,0.0202,0.0218,0.0195,0.0212,0.0213,0.0206,0.0212,0.0182,0.0181,0.0139,0.013,0.0097,0.0016,-0.0008,0.0014,-0.0113,-0.0116,-0.0153,-0.0142,-0.0116,-0.0155,-0.0103,-0.0103,-0.0103,0,0.0186,0.02,0.0242,0.0266,0.0273,0.029,0.0309,0.0321,0.032,0.0312,0.0305,0.0274,0.0251,0.0193,0.0098,0.0107,0.0028,-0.0037,-0.0042,-0.0107,-0.0166,-0.0173,-0.0162,-0.0108,-0.0108,-0.0107,-0.0107,0,0.0229,0.0258,0.0295,0.0301,0.0318,0.0339,0.0351,0.0359,0.0387,0.0378,0.0397,0.0347,0.0333,0.0224,0.0106,0.0095,-0.0021,-0.0057,-0.0163,-0.0167,-0.0178,-0.0183,-0.0126,-0.0126,-0.0126,-0.0126,-0.0126,0,0.0279,0.0308,0.032,0.0341,0.0393,0.0387,0.0443,0.0445,0.0464,0.0508,0.0459,0.047,0.0336,0.0258,0.0129,-0.0019,-0.0003,-0.0142,-0.0183,-0.0153,-0.0155,-0.0145,-0.0147,-0.0127,-0.0127,-0.0127,-0.0126,0,0.0321,0.0331,0.0373,0.0399,0.0417,0.0453,0.0509,0.0543,0.0558,0.0608,0.0614,0.057,0.046,0.0319,0.0141,0.0026,-0.0127,-0.0188,-0.0131,-0.0165,-0.0244,-0.0241,-0.0294,-0.0296,-0.0298,-0.0299,-0.03,0,0.0347,0.0371,0.0415,0.0448,0.0466,0.0519,0.0555,0.0582,0.063,0.0667,0.0698,0.0627,0.0568,0.0305,0.0079,-0.0144,-0.0162,-0.0257,-0.0274,-0.0227,-0.0262,-0.0257,-0.0252,-0.0252,-0.0253,-0.0253,-0.0254,0,0.0385,0.0398,0.0428,0.0493,0.054,0.0602,0.0668,0.0716,0.0752,0.0802,0.0832,0.0787,0.0551,0.0323,0.0018,-0.0133,-0.0222,-0.0277,-0.025,-0.0222,-0.0195,-0.0227,-0.0222,-0.0259,-0.0258,-0.0258,-0.0258,-0.0258,0.0404,0.0432,0.047,0.0538,0.0599,0.0676,0.0748,0.0813,0.0892,0.0979,0.0921,0.0886,0.0624,0.024,-0.0033,-0.0286,-0.028,-0.0349,-0.0344,-0.0339,-0.0336,-0.0314,-0.0398,-0.0398,-0.0398,-0.0399,-0.0399,0,0.0411,0.0452,0.0514,0.0596,0.0667,0.0707,0.0819,0.0895,0.0998,0.1053,0.1084,0.0852,0.0572,0.029,-0.0099,-0.0354,-0.0354,-0.0414,-0.035,-0.0344,-0.0339,-0.0333,-0.0395,-0.0396,-0.0396,-0.0397,0,0,0.0413,0.0463,0.05,0.0628,0.0706,0.0828,0.0905,0.102,0.1105,0.1157,0.116,0.1076,0.0694,0.0423,0.0067,-0.0152,-0.0179,-0.0192,-0.017,-0.0047,-0.0038,-0.0283,-0.0265,0,0,0,0,0]}],[{"header":{"parameterUnit":"m.s-1","parameterCategory":2,"la1":30.2991,"la2":30.254,"lo1":-89.0895,"lo2":-89.0444,"dy":0.0017,"dx":0.0017,"nx":28,"ny":28,"refTime":"2023-10-12T09:00:00:Z","depth":"4","parameterNumber":2,"parameterNumberName":"U-component_of_CURRENTS"},"data":[0,0,0,0,0,0,0,0,0,0,0,0,0,0,0,0,0,0,0,0,0,0,0,0,0,0,0,0,0,0,0,0,0,0,0,0,0,0,0,0,0,0,0,0,0,0,0,0,0,0,0,0,0,0,0,0,0,0,0.0655,0.0655,0,0.0682,0.0683,0.0683,0.0718,0.0719,0.0719,0.0719,0.0742,0.0742,0.0743,0,0,0,0,0,0,0,0,0,0,0,0,0,0.0621,0.0622,0.0655,0.0655,0.0655,0.0682,0.0683,0.0683,0.0718,0.0719,0.0719,0.0719,0.0742,0.0742,0.0743,0,0,0,0,0,0,0,0,0,0,0,0,0,0.0644,0.0622,0.0655,0.0673,0.0675,0.0682,0.0683,0.0684,0.0718,0.0719,0.0719,0.0719,0.0742,0.0742,0.0743,0.0738,0,0,0.0744,0.0744,0,0,0,0,0,0,0,0,0.0643,0.0646,0.067,0.0672,0.0674,0.0694,0.0679,0.07,0.0718,0.0705,0.0719,0.072,0.0723,0.0725,0.0734,0.0739,0.074,0.0744,0.0745,0.0745,0.0745,0,0,0,0,0,0,0,0.0641,0.0644,0.0669,0.067,0.0672,0.0676,0.068,0.0683,0.0714,0.0706,0.0708,0.0706,0.0725,0.0734,0.0735,0.074,0.0744,0.0745,0.0745,0.0745,0.0808,0.0809,0,0,0,0,0,0,0.0631,0.0643,0.0668,0.0669,0.0655,0.0676,0.0681,0.069,0.0714,0.0717,0.0705,0.0707,0.0732,0.0734,0.0736,0.0785,0.0745,0.0745,0.0746,0.0806,0.0808,0.081,0,0,0,0,0,0,0.0631,0.0634,0.0667,0.0653,0.0657,0.0676,0.0686,0.069,0.0717,0.0713,0.0717,0.0729,0.0733,0.0735,0.0765,0.0784,0.0746,0.0746,0.0805,0.0807,0.0809,0.0849,0,0,0,0,0,0,0.063,0.0634,0.0648,0.0653,0.0658,0.0686,0.0685,0.069,0.0712,0.0715,0.0734,0.0735,0.0733,0.0765,0.0766,0.0784,0.0746,0.0803,0.0806,0.0808,0.0846,0.0852,0.0857,0,0,0,0,0,0.0629,0.0641,0.0649,0.0652,0.0674,0.0686,0.069,0.0706,0.0713,0.0731,0.0749,0.0736,0.0781,0.0767,0.0768,0.0786,0.0802,0.0805,0.0808,0.0843,0.0851,0.0857,0,0,0,0,0,0,0.0635,0.0646,0.0654,0.0671,0.0685,0.0691,0.0709,0.0715,0.0744,0.0754,0.0753,0.0756,0.0789,0.0785,0.0769,0.0813,0.0789,0.0793,0.0816,0.0823,0.0828,0.0827,0.0747,0,0,0,0,0,0.0641,0.0656,0.0665,0.0681,0.0692,0.0705,0.0715,0.0725,0.0742,0.0756,0.0774,0.079,0.0799,0.081,0.0821,0.0845,0.0845,0.0858,0.0864,0.0869,0.087,0.088,0.0886,0.0819,0.0819,0.0819,0,0,0.0644,0.0654,0.0662,0.0684,0.0699,0.0714,0.0714,0.0737,0.0753,0.0752,0.08,0.0812,0.0811,0.0841,0.0855,0.0842,0.0894,0.0873,0.0877,0.0875,0.0883,0.089,0.0895,0.0822,0.0821,0.0821,0,0,0.0652,0.0675,0.0688,0.0705,0.0728,0.0735,0.0744,0.0771,0.0793,0.0827,0.0832,0.0859,0.0882,0.0888,0.0888,0.0931,0.0923,0.094,0.0967,0.0977,0.0982,0.0986,0.1018,0.1025,0.0943,0.0943,0.0943,0,0.0656,0.0678,0.0694,0.0714,0.0729,0.0745,0.0764,0.0783,0.0819,0.0841,0.0849,0.0896,0.0899,0.0919,0.0941,0.0941,0.0957,0.0938,0.0983,0.0987,0.0991,0.1022,0.1029,0.0945,0.0945,0.0945,0.0944,0,0.0671,0.0695,0.0709,0.0738,0.0757,0.0779,0.08,0.0837,0.0863,0.0879,0.0926,0.0941,0.0969,0.0974,0.097,0.1004,0.1011,0.0987,0.0962,0.1,0.1031,0.1038,0.0948,0.0948,0.0947,0.0946,0,0,0.0656,0.0708,0.0714,0.0737,0.0775,0.079,0.0828,0.0862,0.0892,0.0933,0.0971,0.0997,0.1018,0.1021,0.1026,0.1035,0.1083,0.1032,0.1031,0.1058,0.1131,0.1115,0.112,0.107,0.1071,0.1072,0.1151,0,0.0664,0.0704,0.0727,0.0766,0.0788,0.0824,0.0856,0.0892,0.0927,0.0973,0.0992,0.1031,0.1029,0.1057,0.1067,0.1081,0.11,0.1066,0.1095,0.1097,0.1071,0.1126,0.1075,0.1155,0.1157,0.1158,0.1159,0,0.0665,0.0696,0.0736,0.0789,0.0804,0.0832,0.0894,0.0927,0.0982,0.1014,0.1056,0.1076,0.112,0.11,0.1148,0.1133,0.1141,0.1142,0.1144,0.1115,0.1091,0.1104,0.117,0.1169,0.1168,0.1168,0.1167,0,0.064,0.0697,0.0731,0.0752,0.0813,0.085,0.089,0.0948,0.0986,0.1053,0.1092,0.1131,0.1177,0.1183,0.1222,0.1188,0.1269,0.1213,0.1205,0.1205,0.1176,0.117,0.1234,0.1234,0.1233,0.1233,0.1233,0,0.0629,0.0657,0.0731,0.0753,0.0802,0.0853,0.0909,0.0958,0.1027,0.1082,0.1123,0.1177,0.1201,0.1255,0.1251,0.1279,0.1301,0.1226,0.1224,0.1195,0.1191,0.1182,0.1175,0.1236,0.1236,0.1235,0.1234,0,0.0586,0.0635,0.0679,0.0762,0.0791,0.0831,0.0923,0.0961,0.1042,0.1119,0.1151,0.1235,0.1311,0.1342,0.1375,0.1334,0.1343,0.1343,0.1359,0.1353,0.1259,0.1253,0.1315,0.1315,0.1315,0.1315,0.1315,0,0.0566,0.0585,0.0677,0.0711,0.0754,0.0823,0.0867,0.0958,0.1009,0.1156,0.1193,0.1304,0.1354,0.1398,0.1419,0.1429,0.1402,0.1398,0.1275,0.1276,0.1268,0.1262,0.1256,0.1315,0.1315,0.1315,0.1315,0,0.0523,0.0562,0.0601,0.0674,0.0732,0.0786,0.0872,0.0905,0.1028,0.111,0.1219,0.1269,0.136,0.1384,0.1429,0.1417,0.1387,0.1397,0.1394,0.1278,0.1277,0.1267,0.1262,0.1315,0.1315,0.1315,0.1315,0,0.049,0.0506,0.0567,0.0625,0.069,0.0743,0.0792,0.088,0.0946,0.1119,0.1162,0.1278,0.137,0.1384,0.142,0.1425,0.1365,0.1287,0.1288,0.1288,0.124,0.1232,0.127,0,0,0,0,0,0.0453,0.047,0.0516,0.058,0.0642,0.0685,0.079,0.0845,0.0974,0.1033,0.1098,0.1186,0.1258,0.1309,0.13,0.1376,0.1351,0.1358,0.1256,0.1316,0.1316,0.1261,0,0,0,0,0,0,0.0429,0.0464,0.0493,0.0529,0.0562,0.0627,0.069,0.0781,0.0824,0.0962,0.1005,0.1112,0.1187,0.1248,0.1274,0.129,0.1202,0.1431,0.1428,0.1317,0.1316,0.1316,0.1259,0,0,0,0,0]},{"header":{"parameterUnit":"m.s-1","parameterCategory":2,"la1":30.2991,"la2":30.254,"lo1":-89.0895,"lo2":-89.0444,"dy":0.0017,"dx":0.0017,"nx":28,"ny":28,"refTime":"2023-10-12T09:00:00:Z","depth":"4","parameterNumber":3,"parameterNumberName":"V-component_of_CURRENTS"},"data":[0,0,0,0,0,0,0,0,0,0,0,0,0,0,0,0,0,0,0,0,0,0,0,0,0,0,0,0,0,0,0,0,0,0,0,0,0,0,0,0,0,0,0,0,0,0,0,0,0,0,0,0,0,0,0,0,0,0,0.0135,0.0135,0,0.0107,0.0107,0.0106,0.0087,0.0087,0.0087,0.0087,-0.0023,-0.0026,-0.0029,0,0,0,0,0,0,0,0,0,0,0,0,0,0.0138,0.0138,0.0135,0.0135,0.0134,0.0107,0.0107,0.0106,0.0087,0.0087,0.0087,0.0087,-0.0022,-0.0026,-0.003,0,0,0,0,0,0,0,0,0,0,0,0,0,0.0124,0.0138,0.0135,0.0124,0.0122,0.0107,0.0107,0.0106,0.0087,0.0087,0.0087,0.0088,-0.0021,-0.0026,-0.003,-0.006,0,0,-0.0044,-0.0046,0,0,0,0,0,0,0,0,0.0125,0.0124,0.0125,0.0124,0.0123,0.0103,0.0067,0.0047,0.0087,0.0098,0.0087,0.0088,0.0013,0.0005,-0.0002,-0.0066,-0.007,-0.0044,-0.0047,-0.0049,-0.005,0,0,0,0,0,0,0,0.0126,0.0125,0.0121,0.0125,0.0124,0.0109,0.0107,0.0063,0.0051,0.0097,0.0096,0.0097,0.0011,0.0002,-0.0005,-0.0072,-0.0044,-0.0048,-0.0051,-0.0053,-0.0172,-0.0172,0,0,0,0,0,0,0.0136,0.0126,0.0122,0.0121,0.0127,0.0109,0.0107,0.0107,0.0054,0.0047,0.0097,0.0096,0.001,-0.0,-0.0009,-0.0061,-0.0049,-0.0053,-0.0056,-0.0171,-0.0172,-0.0172,0,0,0,0,0,0,0.0136,0.0136,0.0123,0.0124,0.0122,0.0109,0.011,0.0107,0.0097,0.0055,0.0046,0.0091,0.0009,-0.0003,-0.0048,-0.0065,-0.0055,-0.0059,-0.0171,-0.0172,-0.0172,-0.0157,0,0,0,0,0,0,0.0136,0.0136,0.0137,0.0125,0.0123,0.0112,0.011,0.0106,0.0099,0.0098,0.0047,0.0037,0.0009,-0.0041,-0.0052,-0.0071,-0.0063,-0.017,-0.0171,-0.0172,-0.0157,-0.0157,-0.0157,0,0,0,0,0,0.0136,0.014,0.0137,0.0137,0.0126,0.0113,0.0109,0.0099,0.0099,0.0091,0.0061,0.0039,-0.0054,-0.0045,-0.0058,-0.0079,-0.017,-0.0171,-0.0172,-0.0157,-0.0157,-0.0157,0,0,0,0,0,0,0.0142,0.0138,0.0135,0.0138,0.0125,0.011,0.0106,0.0099,0.0071,0.0068,0.003,0.0017,-0.0028,-0.0054,-0.0043,-0.0114,-0.0115,-0.0118,-0.0099,-0.0099,-0.0099,-0.0096,-0.0067,0,0,0,0,0,0.0144,0.0147,0.0136,0.0137,0.0132,0.0119,0.0113,0.0105,0.0082,0.007,0.0034,-0.0005,-0.0043,-0.0069,-0.0107,-0.0151,-0.0168,-0.0171,-0.0171,-0.0171,-0.0177,-0.021,-0.0213,-0.0176,-0.0176,-0.0176,0,0,0.0147,0.0146,0.0147,0.0139,0.0129,0.0118,0.0114,0.0105,0.0091,0.006,0.0023,-0.0009,-0.0053,-0.0097,-0.012,-0.0122,-0.019,-0.0172,-0.0172,-0.0178,-0.0211,-0.0215,-0.0218,-0.0176,-0.0176,-0.0176,0,0,0.0151,0.0151,0.0151,0.0141,0.0131,0.0119,0.0118,0.0097,0.0082,0.0046,0.0023,-0.0016,-0.0079,-0.0112,-0.0136,-0.016,-0.0186,-0.0173,-0.0179,-0.021,-0.0213,-0.0217,-0.0236,-0.0241,-0.0176,-0.0176,-0.0176,0,0.0153,0.0153,0.0147,0.0141,0.0136,0.0121,0.0114,0.0094,0.0059,0.0042,0.0035,-0.0049,-0.0086,-0.0137,-0.0146,-0.0162,-0.0179,-0.0174,-0.021,-0.0213,-0.0217,-0.0236,-0.0242,-0.0176,-0.0176,-0.0176,-0.0176,0,0.0151,0.0151,0.015,0.0138,0.0128,0.0121,0.0099,0.0078,0.006,0.0036,-0.0016,-0.0062,-0.0111,-0.0129,-0.015,-0.0195,-0.0197,-0.0202,-0.0207,-0.022,-0.0239,-0.0245,-0.0175,-0.0175,-0.0175,-0.0175,0,0,0.0155,0.0151,0.015,0.015,0.0129,0.0123,0.0096,0.0068,0.0053,0.0005,-0.0023,-0.0091,-0.0114,-0.0142,-0.0172,-0.0204,-0.0241,-0.0215,-0.0217,-0.023,-0.0304,-0.0283,-0.0288,-0.0251,-0.0253,-0.0254,-0.0304,0,0.0154,0.0154,0.0147,0.0141,0.0139,0.0119,0.01,0.007,0.0038,0.0003,-0.0049,-0.0089,-0.0119,-0.0138,-0.0179,-0.0227,-0.0258,-0.0227,-0.0294,-0.0296,-0.0273,-0.0295,-0.0257,-0.0308,-0.031,-0.0311,-0.0312,0,0.0151,0.0155,0.0154,0.0154,0.0151,0.0142,0.0116,0.0097,0.0043,0.0019,-0.0034,-0.0075,-0.0141,-0.0152,-0.0249,-0.0227,-0.0267,-0.03,-0.0302,-0.0296,-0.0288,-0.0297,-0.0323,-0.0322,-0.0321,-0.0321,-0.032,0,0.0161,0.016,0.0165,0.0163,0.0154,0.0148,0.0139,0.0098,0.0089,0.003,0.0017,-0.0072,-0.0105,-0.018,-0.0256,-0.0256,-0.0347,-0.0354,-0.0372,-0.0371,-0.0379,-0.0376,-0.0415,-0.0415,-0.0415,-0.0415,-0.0415,0,0.0163,0.0166,0.0174,0.0176,0.0185,0.017,0.0166,0.0143,0.0115,0.0111,0.003,0.0011,-0.0113,-0.0181,-0.0253,-0.0332,-0.0348,-0.0381,-0.0388,-0.037,-0.0365,-0.0383,-0.0379,-0.0417,-0.0417,-0.0416,-0.0416,0,0.0162,0.0168,0.0178,0.0183,0.019,0.0193,0.0201,0.0199,0.017,0.0164,0.015,0.0063,-0.0026,-0.0141,-0.0259,-0.0315,-0.0396,-0.0414,-0.0381,-0.0384,-0.04,-0.0394,-0.0453,-0.0453,-0.0452,-0.0452,-0.0452,0,0.0155,0.0164,0.0189,0.0206,0.021,0.0222,0.0237,0.0225,0.0235,0.0208,0.0214,0.0121,0.0056,-0.0091,-0.0223,-0.037,-0.0383,-0.0427,-0.043,-0.0406,-0.0407,-0.0401,-0.0396,-0.0452,-0.0452,-0.0452,-0.0452,0,0.0148,0.0162,0.0176,0.0218,0.0243,0.0274,0.0299,0.0316,0.0314,0.0289,0.0279,0.0185,0.0084,-0.0064,-0.0182,-0.0285,-0.0407,-0.0426,-0.0427,-0.043,-0.0406,-0.0405,-0.04,-0.0451,-0.0451,-0.0451,-0.0451,0,0.0147,0.0159,0.0193,0.023,0.0269,0.0321,0.033,0.0359,0.037,0.0353,0.0351,0.0233,0.0153,-0.0018,-0.0122,-0.0234,-0.0265,-0.0293,-0.0302,-0.0304,-0.0251,-0.0197,-0.0191,0,0,0,0,0,0.0148,0.0175,0.0207,0.0258,0.0299,0.0334,0.0375,0.0383,0.0393,0.0404,0.0384,0.0298,0.0129,0.0044,-0.0062,-0.0141,-0.0301,-0.027,-0.0342,-0.0449,-0.0449,-0.0412,0,0,0,0,0,0,0.0156,0.0186,0.0209,0.0279,0.0324,0.0381,0.0416,0.0424,0.0433,0.0422,0.0335,0.0285,0.0113,0.0199,-0.0057,-0.0096,-0.0153,-0.0357,-0.0359,-0.0448,-0.0449,-0.0449,-0.0411,0,0,0,0,0]}]]